KN6TED Weather Reports


time (UTC)temp
C
wind
direction
speed
KPH
gust
KPH
rain 1hr
cm
rain 24hr
cm
rain mn
cm
humidity
%
barometer
mb
20260506104058 15 0 0.0 3.2 0.00 0.00 0.00 85 1017.8
20260506103558 15 178 0.0 4.8 0.00 0.00 0.00 85 1017.8
20260506103057 15 0 0.0 4.8 0.00 0.00 0.00 85 1017.7
20260506102558 15 0 0.0 4.8 0.00 0.00 0.00 84 1017.8
20260506102101 15 0 0.0 3.2 0.00 0.00 0.00 84 1017.7
20260506101558 15 137 0.0 3.2 0.00 0.00 0.00 84 1017.6
20260506101057 15 0 0.0 3.2 0.00 0.00 0.00 84 1017.7
20260506100557 15 51 0.0 3.2 0.00 0.00 0.00 84 1017.6
20260506100057 15 0 1.6 3.2 0.00 0.00 0.00 84 1017.6
20260506095554 15 0 0.0 6.4 0.00 0.00 0.00 84 1017.6
20260506095059 15 0 0.0 6.4 0.00 0.00 0.00 84 1017.7
20260506094623 15 0 0.0 14.5 0.00 0.00 0.00 84 1017.6
20260506094058 15 76 3.2 14.5 0.00 0.00 0.00 84 1017.5
20260506093559 15 80 1.6 6.4 0.00 0.00 0.00 84 1017.5
20260506093058 15 144 1.6 11.3 0.00 0.00 0.00 84 1017.5
20260506092559 15 120 1.6 11.3 0.00 0.00 0.00 84 1017.5
20260506092059 15 78 1.6 8.0 0.00 0.00 0.00 84 1017.5
20260506091600 15 137 3.2 8.0 0.00 0.00 0.00 84 1017.5
20260506091100 15 93 3.2 9.7 0.00 0.00 0.00 84 1017.4
20260506090558 15 41 3.2 9.7 0.00 0.00 0.00 84 1017.5
20260506090058 15 71 3.2 11.3 0.00 0.00 0.00 84 1017.4
20260506085559 15 71 3.2 11.3 0.00 0.00 0.00 84 1017.5
20260506085059 15 68 3.2 9.7 0.00 0.00 0.00 84 1017.5
20260506084557 15 80 3.2 8.0 0.00 0.00 0.00 84 1017.5
20260506084101 15 0 3.2 8.0 0.00 0.00 0.00 83 1017.5
20260506083602 15 61 3.2 6.4 0.00 0.00 0.00 83 1017.5
20260506083109 15 80 1.6 6.4 0.00 0.00 0.00 83 1017.5
20260506082559 15 102 1.6 6.4 0.00 0.00 0.00 84 1017.5
20260506082058 15 76 0.0 6.4 0.00 0.00 0.00 84 1017.4
20260506081559 15 120 1.6 6.4 0.00 0.00 0.00 84 1017.4
20260506081059 15 83 0.0 6.4 0.00 0.00 0.00 84 1017.4
20260506080600 15 93 1.6 11.3 0.00 0.00 0.00 84 1017.4
20260506073058 16 115 3.2 11.3 0.00 0.08 0.00 83 1017.1
20260506072559 16 111 1.6 9.7 0.00 0.08 0.00 83 1017.0
20260506072058 16 76 3.2 9.7 0.00 0.08 0.00 83 1017.0
20260506071557 16 93 3.2 9.7 0.00 0.08 0.00 83 1016.9
20260506071059 16 117 3.2 9.7 0.00 0.08 0.00 83 1016.9
20260506070559 16 120 1.6 6.4 0.00 0.08 0.00 83 1016.8
20260506062102 16 105 3.2 8.0 0.00 0.13 0.08 82 1016.6
20260506061557 16 120 3.2 8.0 0.00 0.13 0.08 82 1016.6
20260506061102 16 93 3.2 6.4 0.00 0.13 0.08 82 1016.6
20260506060558 16 93 1.6 6.4 0.00 0.13 0.08 82 1016.6
20260506060121 16 108 1.6 6.4 0.00 0.13 0.08 82 1016.6
20260506051059 16 212 3.2 9.7 0.00 0.25 0.08 80 1016.1
20260506050558 17 153 1.6 9.7 0.00 0.25 0.08 80 1016.2
20260506045100 17 0 0.0 8.0 0.00 0.36 0.08 79 1016.0
20260506044611 17 221 1.6 8.0 0.00 0.36 0.08 78 1016.0
20260506044059 17 137 1.6 8.0 0.00 0.36 0.08 78 1015.9
20260506043559 17 34 0.0 8.0 0.00 0.36 0.08 78 1015.8
20260506043057 17 178 1.6 6.4 0.00 0.36 0.08 77 1015.8
20260506042559 17 212 1.6 9.7 0.00 0.36 0.08 77 1015.8
20260506042057 17 93 3.2 16.1 0.00 0.36 0.08 76 1015.7
20260506041558 17 218 3.2 16.1 0.00 0.36 0.08 76 1015.7
20260506041059 17 110 1.6 12.9 0.00 0.36 0.08 76 1015.5
20260506040558 17 0 1.6 12.9 0.00 0.36 0.08 76 1015.5
20260506040100 17 0 3.2 11.3 0.00 0.36 0.08 77 1015.4
20260506035558 17 165 3.2 11.3 0.00 0.46 0.08 77 1015.3
20260506035058 17 93 3.2 9.7 0.00 0.46 0.08 77 1015.2
20260506034600 17 120 1.6 9.7 0.00 0.46 0.08 76 1015.3
20260506034059 17 22 3.2 14.5 0.00 0.46 0.08 76 1015.1
20260506033559 17 137 3.2 14.5 0.00 0.46 0.08 75 1015.1
20260506033113 17 102 4.8 14.5 0.00 0.46 0.08 74 1015.0
20260506032603 17 93 4.8 14.5 0.00 0.46 0.08 74 1014.8
20260506032100 17 113 6.4 14.5 0.00 0.46 0.08 73 1014.8
20260506031610 17 99 4.8 12.9 0.00 0.46 0.08 73 1014.6
20260506031059 17 120 3.2 16.1 0.00 0.46 0.08 73 1014.6
20260506030603 17 105 4.8 16.1 0.00 0.46 0.08 73 1014.5
20260506030110 17 87 4.8 14.5 0.00 0.46 0.08 73 1014.4
20260506025558 17 105 4.8 14.5 0.00 0.64 0.08 73 1014.3
20260506025059 18 68 3.2 14.5 0.00 0.64 0.08 73 1014.3
20260506024610 18 126 3.2 12.9 0.00 0.64 0.08 73 1014.2
20260506024059 18 82 3.2 12.9 0.00 0.64 0.08 73 1014.1
20260506023558 18 93 3.2 12.9 0.00 0.64 0.08 73 1014.1
20260506023103 18 108 3.2 12.9 0.00 0.64 0.08 73 1014.0
20260506022558 18 68 6.4 14.5 0.00 0.64 0.08 72 1014.1
20260506022058 18 51 4.8 14.5 0.00 0.64 0.08 71 1014.0
20260506021601 18 108 4.8 9.7 0.00 0.64 0.08 71 1014.1
20260506021058 18 103 3.2 14.5 0.00 0.64 0.08 71 1013.9
20260506020557 18 120 4.8 17.7 0.00 0.64 0.08 71 1013.8
20260506020108 18 93 4.8 17.7 0.00 0.64 0.08 70 1013.8
20260506015559 18 51 6.4 16.1 0.00 0.91 0.08 69 1013.8
20260506015101 18 46 4.8 16.1 0.00 0.91 0.08 69 1013.8
20260506014611 18 108 8.0 16.1 0.00 0.91 0.08 69 1013.7
20260506014058 18 137 8.0 16.1 0.00 0.91 0.08 69 1013.7
20260506013602 18 93 4.8 16.1 0.00 0.91 0.08 68 1013.6
20260506013110 18 334 3.2 19.3 0.00 0.91 0.08 67 1013.6
20260506012558 18 167 4.8 19.3 0.00 0.91 0.08 67 1013.6
20260506012058 19 178 3.2 11.3 0.00 0.91 0.08 67 1013.6
20260506011600 19 26 1.6 11.3 0.00 0.91 0.08 67 1013.7
20260506011101 19 0 1.6 12.9 0.00 0.91 0.08 66 1013.6
20260506010600 19 93 4.8 12.9 0.00 0.91 0.08 65 1013.6
20260506010059 20 9 3.2 12.9 0.00 0.91 0.08 64 1013.6
20260506005601 20 108 3.2 16.1 0.00 1.32 0.08 63 1013.5
20260506005058 20 129 3.2 16.1 0.00 1.32 0.08 63 1013.5
20260506004601 20 146 8.0 16.1 0.00 1.32 0.08 63 1013.4
20260506004059 20 153 3.2 16.1 0.00 1.32 0.08 62 1013.5
20260506003559 20 137 1.6 16.1 0.00 1.32 0.08 62 1013.5
20260506003058 20 178 4.8 16.1 0.00 1.32 0.08 63 1013.5
20260506002558 20 0 4.8 14.5 0.00 1.32 0.08 62 1013.5
20260506002058 20 83 3.2 14.5 0.00 1.32 0.08 62 1013.4
20260506001610 20 186 3.2 14.5 0.00 1.32 0.08 63 1013.5
20260506001058 20 120 3.2 11.3 0.00 1.32 0.08 62 1013.4
20260506000559 20 0 1.6 11.3 0.00 1.32 0.08 62 1013.3
20260506000101 20 68 3.2 11.3 0.00 1.32 0.08 63 1013.3
20260505235558 20 178 4.8 12.9 0.00 1.42 0.08 63 1013.3
20260505235058 20 167 4.8 12.9 0.00 1.42 0.08 62 1013.2
20260505234601 20 169 1.6 11.3 0.00 1.42 0.08 63 1013.4
20260505234101 20 165 3.2 9.7 0.00 1.42 0.08 62 1013.5
20260505233559 20 131 1.6 8.0 0.00 1.42 0.08 61 1013.5
20260505233057 20 51 1.6 11.3 0.00 1.42 0.08 61 1013.5
20260505232601 20 178 3.2 11.3 0.00 1.42 0.08 61 1013.5
20260505232104 20 175 1.6 12.9 0.00 1.42 0.08 63 1013.6
20260505231604 20 157 6.4 12.9 0.00 1.42 0.08 62 1013.6
20260505231103 20 162 3.2 11.3 0.00 1.42 0.08 63 1013.6
20260505230559 19 153 1.6 11.3 0.00 1.42 0.08 61 1013.6
20260505230101 20 137 3.2 11.3 0.00 1.42 0.08 60 1013.7
20260505225558 20 76 1.6 6.4 0.00 1.42 0.08 61 1013.8
20260505225059 19 205 1.6 17.7 0.00 1.42 0.08 62 1013.8
20260505224600 19 93 1.6 17.7 0.00 1.42 0.08 61 1013.7
20260505224057 20 57 4.8 14.5 0.00 1.42 0.08 61 1013.8
20260505223558 20 178 1.6 14.5 0.00 1.42 0.08 62 1013.8
20260505223100 20 265 3.2 14.5 0.00 1.42 0.08 63 1013.9
20260505222558 20 289 4.8 16.1 0.00 1.42 0.08 62 1013.9
20260505222058 20 196 3.2 16.1 0.00 1.42 0.08 63 1014.0
20260505221559 20 196 3.2 16.1 0.00 1.42 0.08 65 1014.0
20260505221058 20 0 4.8 16.1 0.00 1.42 0.08 65 1014.1
20260505220559 20 185 4.8 14.5 0.00 1.42 0.08 66 1014.1
20260505220057 20 9 4.8 17.7 0.00 1.42 0.08 66 1014.1
20260505215558 20 309 3.2 17.7 0.00 1.47 0.08 66 1014.2
20260505215058 20 88 6.4 14.5 0.00 1.47 0.08 65 1014.1
20260505214557 20 178 3.2 12.9 0.00 1.47 0.08 67 1014.2
20260505214058 19 173 3.2 14.5 0.00 1.47 0.08 67 1014.2
20260505213559 19 47 4.8 14.5 0.00 1.47 0.08 67 1014.3
20260505213110 19 188 3.2 14.5 0.00 1.47 0.08 68 1014.4
20260505212558 18 164 4.8 12.9 0.00 1.47 0.08 67 1014.4
20260505212059 18 93 4.8 12.9 0.00 1.47 0.08 68 1014.4
20260505211558 18 173 3.2 11.3 0.00 1.47 0.08 69 1014.4
20260505211058 18 88 3.2 16.1 0.00 1.47 0.08 69 1014.4
20260505210558 18 41 6.4 16.1 0.00 1.47 0.08 68 1014.3
20260505210100 18 178 3.2 11.3 0.00 1.47 0.08 69 1014.3
20260505205558 18 99 1.6 9.7 0.00 1.57 0.08 69 1014.3
20260505205100 18 249 1.6 9.7 0.00 1.57 0.08 67 1014.3
20260505204600 18 249 3.2 9.7 0.00 1.57 0.08 66 1014.4
20260505204059 18 214 3.2 8.0 0.00 1.57 0.08 69 1014.5
20260505203558 18 144 1.6 12.9 0.00 1.57 0.08 70 1014.4
20260505203106 17 178 3.2 12.9 0.00 1.57 0.08 71 1014.4
20260505202558 17 171 1.6 9.7 0.00 1.57 0.08 73 1014.4
20260505202058 17 153 4.8 12.9 0.00 1.57 0.08 72 1014.5
20260505201606 17 237 4.8 12.9 0.00 1.57 0.08 72 1014.5
20260505201058 17 225 3.2 12.9 0.00 1.57 0.08 76 1014.6
20260505200558 17 193 4.8 12.9 0.00 1.57 0.08 72 1014.6
20260505200059 17 205 4.8 11.3 0.00 1.57 0.08 74 1014.7
20260505195602 17 137 3.2 11.3 0.00 1.70 0.08 76 1014.7
20260505195057 17 221 1.6 11.3 0.00 1.70 0.08 76 1014.7
20260505194559 17 178 4.8 11.3 0.00 1.70 0.08 72 1014.8
20260505194058 17 147 1.6 11.3 0.00 1.70 0.08 73 1014.7
20260505193600 17 178 3.2 9.7 0.00 1.70 0.08 74 1014.8
20260505193059 17 247 4.8 9.7 0.00 1.70 0.08 73 1014.7
20260505192557 17 316 3.2 9.7 0.00 1.70 0.08 73 1014.7
20260505192058 17 137 4.8 16.1 0.00 1.70 0.08 74 1014.8
20260505191615 17 76 3.2 17.7 0.00 1.70 0.08 73 1014.8
20260505191057 16 123 6.4 17.7 0.00 1.70 0.08 76 1014.9
20260505190559 16 165 3.2 12.9 0.00 1.70 0.08 76 1014.9
20260505190059 16 68 3.2 12.9 0.00 1.70 0.08 77 1014.9
20260505185558 16 195 3.2 8.0 0.00 1.73 0.08 78 1014.9
20260505185058 15 221 3.2 8.0 0.00 1.73 0.08 81 1014.9
20260505184557 15 178 3.2 9.7 0.00 1.73 0.08 80 1015.0
20260505184058 15 218 3.2 16.1 0.00 1.73 0.08 81 1014.9
20260505183558 15 291 1.6 16.1 0.00 1.73 0.08 81 1014.9
20260505183057 15 259 3.2 16.1 0.00 1.73 0.08 83 1015.0
20260505182557 15 227 1.6 8.0 0.00 1.73 0.08 84 1015.0
20260505182128 14 209 3.2 8.0 0.00 1.73 0.08 84 1015.0
20260505181557 14 304 1.6 9.7 0.00 1.73 0.08 84 1014.9
20260505181057 14 301 3.2 9.7 0.00 1.73 0.08 84 1014.9
20260505180558 14 272 1.6 8.0 0.00 1.73 0.08 84 1014.9
20260505180107 13 9 1.6 8.0 0.00 1.73 0.08 85 1015.0
20260505175601 13 0 1.6 8.0 0.00 1.73 0.08 85 1015.0
20260505175059 13 64 1.6 8.0 0.00 1.73 0.08 84 1014.9
20260505174611 13 120 3.2 8.0 0.00 1.73 0.08 84 1014.9
20260505174056 13 51 1.6 6.4 0.00 1.73 0.08 86 1014.9
20260505173558 13 0 1.6 6.4 0.00 1.73 0.08 86 1014.9
20260505173057 13 51 3.2 8.0 0.00 1.73 0.08 87 1015.0
20260505172558 13 129 1.6 8.0 0.00 1.73 0.08 88 1014.9
20260505172058 13 178 1.6 6.4 0.00 1.73 0.08 89 1014.9
20260505171556 13 80 1.6 11.3 0.00 1.73 0.08 89 1014.9
20260505171059 13 0 3.2 11.3 0.00 1.73 0.08 89 1014.9
20260505170558 13 129 0.0 8.0 0.00 1.73 0.08 91 1015.0
20260505170059 13 126 3.2 9.7 0.00 1.73 0.08 91 1014.8
20260505165558 12 265 1.6 9.7 0.00 1.73 0.08 90 1014.9
20260505165058 12 85 1.6 9.7 0.00 1.73 0.08 91 1015.0
20260505164558 12 93 3.2 9.7 0.00 1.73 0.08 91 1014.8
20260505164059 12 137 3.2 9.7 0.00 1.73 0.08 92 1014.8
20260505163558 12 85 1.6 9.7 0.00 1.73 0.08 92 1014.7
20260505163059 12 137 1.6 11.3 0.00 1.73 0.08 92 1014.6
20260505162558 12 80 3.2 11.3 0.00 1.73 0.08 93 1014.6
20260505162059 12 68 3.2 11.3 0.00 1.73 0.08 93 1014.7
20260505161557 12 83 3.2 11.3 0.00 1.73 0.08 93 1014.7
20260505161058 12 86 3.2 12.9 0.00 1.73 0.08 94 1014.7
20260505160557 12 99 3.2 12.9 0.00 1.73 0.08 94 1014.6
20260505153057 12 105 3.2 12.9 0.00 1.73 0.08 95 1014.4
20260505152558 11 26 3.2 12.9 0.00 1.73 0.08 95 1014.3
20260505152101 11 90 3.2 12.9 0.00 1.73 0.08 96 1014.4
20260505151559 11 108 3.2 9.7 0.00 1.73 0.08 96 1014.3
20260505151057 11 64 1.6 6.4 0.00 1.73 0.08 96 1014.4
20260505150559 11 113 1.6 9.7 0.00 1.73 0.08 96 1014.4
20260505140601 11 46 3.2 14.5 0.00 1.73 0.08 96 1013.6
20260505124557 11 31 3.2 9.7 0.00 1.73 0.08 96 1013.2
20260505124059 11 57 1.6 9.7 0.00 1.73 0.08 96 1013.1
20260505123558 11 111 3.2 6.4 0.00 1.73 0.08 96 1012.9
20260505123059 11 124 3.2 8.0 0.00 1.73 0.08 96 1013.0
20260505122558 11 105 3.2 9.7 0.00 1.73 0.08 96 1013.0
20260505122058 11 129 3.2 9.7 0.00 1.73 0.08 96 1013.0
20260505121556 11 132 1.6 8.0 0.00 1.73 0.08 96 1013.0
20260505121058 11 108 1.6 8.0 0.00 1.73 0.08 96 1013.0
20260505120558 11 93 1.6 8.0 0.00 1.73 0.08 96 1013.1
20260505115558 11 0 1.6 6.4 0.00 1.73 0.08 96 1013.1
20260505115058 11 120 0.0 6.4 0.00 1.73 0.08 96 1013.1
20260505114601 11 0 1.6 6.4 0.00 1.73 0.08 96 1013.1
20260505114059 11 137 0.0 4.8 0.00 1.73 0.08 96 1013.0
20260505113559 11 111 1.6 6.4 0.00 1.73 0.08 96 1013.1
20260505113057 11 162 3.2 6.4 0.00 1.73 0.08 96 1013.0
20260505112558 11 51 1.6 6.4 0.00 1.73 0.08 96 1013.1
20260505112058 11 51 1.6 6.4 0.00 1.73 0.08 96 1013.2
20260505111557 11 137 1.6 6.4 0.00 1.73 0.08 96 1013.1
20260505111101 11 111 1.6 8.0 0.00 1.73 0.08 96 1013.1
20260505110558 11 178 1.6 8.0 0.00 1.73 0.08 96 1013.1